sat.trackr.live / text

‹ back to catalog

KUIPER-00383

NORAD 69268 · 2026-118B

PAYLOAD ACTIVE UNKNOWN

§ Identity

Operator
Country
US
Launch date
2026-05-29
Launch site
AFETR
Launch vehicle
Mass (kg)
RCS (m²)

External: N2YO · Heavens-Above · Gunter

§ Orbital elements

Epoch: 2026-09-20T04:57:21.669984Z

Period
97.30 min
Inclination
51.9002°
Eccentricity
0.0000257
Mean motion
14.79929707 rev/d
Perigee alt
629.4 km
Apogee alt
629.7 km
Semi-major
7,007.7 km
B*
8.3970e-5
RAAN
337.9861°
Arg perigee
91.3321°
Mean anomaly
268.7671°
Rev number
1,826

§ Raw data

KUIPER-003831 69268U 26118B   26263.20650081  .00000419  00000+0  83970-4 0  99942 69268  51.9002 337.9861 0000257  91.3321 268.7671 14.79929707 18269

JSON: /api/v1/satellites/69268 · /tle

For live sub-satellite position, see the globe view (requires WebGL).

§ Visibility from observer

Set your observer location to see the next 7 days of passes ≥ 10°. The values pass through the URL so the page stays shareable.

No JS? Fill the form by hand. The geolocation button needs JavaScript.